Location: Mexico
(19.4000°N, 99.1500°W)
Time: 06:14:20
(UTC-06:00)

ISS - Pass Details

Date: 11 December 2019
Orbit: 411 x 421 km, 51.6° (Epoch: 11 December)

Event Time Altitude Azimuth Distance (km) Brightness Sun altitude
Rises 20:03:10 0° 304° (WNW) 2,352 0.6 -28.2°
Reaches altitude 10° 20:05:32 10° 289° (WNW) 1,489 -0.3 -28.8°
Enters shadow 20:06:44 17° 272° (W) 1,142 -0.9 -29.1°
